星链-1958 (STARLINK-1958 )

导读

STARLINK-1958是美国太空探索技术公司星链星座的卫星,于2021年2月4日发射升空。作为星链卫星互联网项目的组成部分,它主要用于为全球提供低延迟、高速率的宽带互联网服务,目前已在近地轨道运行超5年,支撑星链系统的全球覆盖能力。

基本信息
目录编号:
47559
目录名称:
STARLINK-1958
国际标识:
2021-009M
轨道中心:
EARTH
卫星名称:
星链-1958
卫星全名:
星链-1958 (STARLINK-1958 )
卫星状态:
已陨落 最后检测时间 2026-06-22
发射日期:
2021-02-04 UTC
国别 :
美国 (US)
星等 :
--
该卫星已列入 空间交会检测服务 Space Conjunction Data Service (SCDS) ,当前飞行风险评估等级: 无高风险
轨道信息
数据来源 国际轨道数据
星历时间: 2026-06-22T17:44:52+0800
轨道信息已过期81天
半长轴: 6535.305km
偏心率: 0.0007192
轨道倾角: 53.015°
近地点辐角 263.748°
升交点赤经 153.045°
平近点角 96.274°
近地点: 152.467km
远地点: 161.869km
周期: 87.631分钟
每日圈数: 16.432514
详细信息
固有亮度:
5
最大亮度:
2.5
卫星平台:
Starlink V1.0
覆盖范围:
全球
运营商:
太空探索技术公司
运营商所在国:
美国
制造商(研发单位):
太空探索技术公司
制造商所在国:
美国
使用方式:
暂无
卫星简介
星链(Starlink)计划是由太空探索技术公司(SpaceX)提出的一个巨型低轨卫星互联网星座项目,计划在2019年至2024年间在太空搭建由约1.2万颗卫星组成的“星链”网络,其中1584颗将部署在地球上空550千米处的近地轨道,并从2020年开始工作。该卫星仍在工作。
与全量物体交会距离演化趋势
与全量物体交会风险概率演化趋势